Tracking 30743 objects as of 20-Jun-2025
HD Live streaming from Space Station
objects crossing your sky now

GEOTAIL

Track GEOTAIL now!
GEOTAIL is classified as:


NORAD ID: 22049
Int'l Code: 1992-044A
Perigee: 46,855.8 km
Apogee: 194,455.7 km
Inclination: 45.6 °
Period: 7,509.4 minutes
Semi major axis: 127026 km
RCS: 3.5 m2 (large)
Launch date: July 24, 1992
Source: Japan (JPN)
Launch site: AIR FORCE EASTERN TEST RANGE (AFETR)

Study the dynamics of the Earth's magnetotail over a wide range of distance
Your satellite tracking list
Your tracking list is empty




NASA's NSSDC Master Catalog

Two Line Element Set (TLE):
1 22049U 92044A   25173.64521384 -.00001945  00000-0  00000+0 0  9996
2 22049  45.5588   4.8516 5809794 259.0474   0.3309  0.19176087 15067
Source of the keplerian elements: AFSPC